Wind_Speed
26 26 26 26 26 26 26 26 27 27 28 29 30 30 31 32 33 33 33 34 33 33 33 33 34 38 45 46 46 45 45 45 44 43 44 44 43 43 43 46 48 49 47 45 43 43 44 44 44 45 45 45 46 46 46 46 45 45 46 46 45 44 44
28 28 28 27 27 27 27 27 27 28 29 30 31 31 31 33 34 34 34 34 34 34 34 34 34 37 42 46 46 47 48 49 47 45 43 43 43 42 41 42 45 47 48 48 46 45 46 46 46 46 46 46 46 46 47 48 48 46 46 47 46 45 43
30 30 29 29 29 29 29 29 29 28 29 30 31 32 32 33 34 34 34 34 34 34 34 34 35 37 41 44 46 47 50 52 51 48 46 44 44 44 43 43 43 44 45 47 48 48 47 48 48 48 48 48 48 48 49 50 49 48 47 47 46 45 45
32 32 31 31 31 30 30 30 30 30 30 30 31 32 33 33 34 35 34 34 34 34 34 35 36 37 40 43 45 47 50 54 55 53 51 48 47 47 47 46 45 44 44 44 46 48 49 49 50 50 50 50 50 50 51 51 50 49 48 48 47 46 46
35 35 35 34 33 32 31 31 31 31 31 31 31 32 34 35 35 36 35 35 35 35 35 36 37 38 39 41 44 47 50 53 56 57 56 54 51 50 51 50 48 46 46 45 44 45 47 49 50 51 51 51 51 52 52 52 52 51 48 48 48 46 47
39 38 38 38 37 36 35 34 33 32 33 32 32 33 34 36 36 37 37 36 36 36 36 36 37 38 39 41 43 46 49 52 55 57 59 58 55 52 52 53 53 51 49 49 47 45 46 48 50 51 51 52 52 52 53 52 52 52 50 49 49 48 49
42 41 40 41 41 40 39 38 37 35 35 34 34 34 35 36 37 38 38 38 38 38 38 38 38 39 40 41 42 44 47 50 53 56 59 60 60 56 53 53 55 55 53 53 52 49 48 48 50 51 52 53 53 53 53 54 54 53 53 52 52 51 51
44 44 43 43 43 43 43 42 41 40 39 38 37 37 37 37 38 39 40 40 40 40 40 40 39 40 40 41 42 44 46 48 52 55 58 60 62 61 58 55 55 56 56 55 55 54 53 52 52 53 53 54 54 53 53 54 55 56 55 55 55 54 53
47 46 46 46 46 46 46 45 45 44 43 42 42 41 40 40 40 40 41 41 41 41 42 42 42 41 41 42 42 43 45 47 50 53 56 59 61 63 63 61 58 57 57 58 58 57 57 56 55 55 55 55 55 55 55 54 54 56 57 57 57 56 55
50 49 49 48 48 48 48 48 48 47 46 46 45 45 44 44 43 42 42 42 42 43 43 43 44 44 43 43 43 43 44 46 48 50 53 56 59 61 63 64 63 61 60 60 61 60 59 60 60 60 59 59 58 58 58 58 56 55 56 58 58 58 58
52 52 52 52 51 51 51 50 50 49 49 48 48 48 48 48 47 46 45 44 44 44 44 44 45 46 46 45 45 45 45 46 47 49 51 53 56 59 62 64 66 66 64 63 63 64 62 61 62 64 65 64 64 63 62 62 61 59 59 58 58 58 59
54 54 54 54 54 54 54 53 53 52 51 51 50 50 50 50 50 49 48 48 47 46 46 46 46 47 47 47 48 48 48 48 48 48 50 51 53 56 59 62 64 66 67 67 67 67 66 64 62 63 66 67 68 68 68 67 65 63 63 63 60 58 58
55 55 56 57 57 56 56 56 56 55 54 53 53 53 52 52 52 51 51 51 50 50 49 49 48 48 48 49 49 50 50 51 51 50 50 51 52 54 56 58 61 64 66 68 68 69 70 69 67 64 64 66 68 69 70 71 70 68 66 67 66 65 63
57 57 58 59 59 58 58 58 58 57 57 57 56 56 55 55 54 53 53 53 53 53 53 53 52 51 51 50 50 51 52 53 53 53 52 52 53 54 55 56 58 60 62 64 67 68 70 71 71 69 67 66 67 68 69 70 71 71 70 69 69 69 69
60 60 61 61 61 61 60 60 60 60 60 59 59 59 59 58 57 57 56 55 55 56 56 57 56 56 54 53 53 52 53 53 54 55 55 55 55 55 56 56 57 58 60 61 63 65 67 69 70 71 70 68 67 68 70 70 71 71 71 71 70 70 70
64 64 64 64 64 63 63 62 62 62 62 62 62 62 62 61 61 60 60 59 59 59 59 59 60 59 59 57 57 56 56 55 55 56 56 57 58 58 57 58 59 59 60 61 61 63 64 66 67 69 69 69 68 69 70 72 72 71 71 72 72 72 73
66 66 66 66 66 66 66 65 65 64 64 64 64 64 64 64 64 64 63 63 63 63 63 63 63 63 62 62 61 61 60 59 58 58 58 59 59 60 60 60 60 61 61 62 62 63 64 65 66 67 68 68 69 69 70 72 74 74 73 73 73 73 74
67 67 66 66 68 69 69 68 68 68 67 67 66 66 66 66 66 66 66 66 66 67 68 68 67 66 65 65 65 65 65 64 63 62 62 62 62 62 63 63 63 63 63 63 64 64 65 65 66 67 67 68 68 69 70 71 73 75 75 76 75 74 74
66 65 63 63 67 70 70 70 70 71 70 70 69 69 68 68 68 68 69 69 69 70 71 71 71 70 69 68 68 68 68 68 68 67 66 65 65 64 64 65 65 65 65 65 65 66 66 67 67 67 68 68 69 69 70 71 71 73 74 76 77 77 76
64 62 59 59 64 67 68 69 70 71 72 72 72 72 72 71 72 72 72 72 73 73 74 74 74 73 73 72 71 71 71 71 71 71 70 69 68 68 67 67 67 67 68 68 68 68 68 68 68 69 69 69 69 70 70 71 72 72 73 74 75 76 77
63 61 59 59 62 65 66 67 68 70 71 71 72 72 72 74 75 76 76 77 77 77 77 76 75 75 75 75 75 74 74 74 74 74 74 73 72 72 71 70 70 70 70 70 70 70 70 70 70 70 70 70 70 71 71 72 72 73 74 75 75 76 76
64 62 61 61 63 64 65 65 66 68 69 69 69 69 71 73 75 76 78 79 80 81 80 80 79 78 78 77 78 78 78 78 77 77 76 76 76 76 75 75 74 73 73 73 72 72 72 72 72 72 72 71 71 71 72 73 74 74 75 76 77 77 77
67 65 64 64 64 65 65 66 66 67 68 68 68 67 69 70 71 72 76 78 80 81 83 83 83 83 81 80 79 79 80 80 81 80 79 79 79 79 79 78 78 78 77 76 76 75 75 74 74 74 74 74 73 73 73 74 75 75 76 77 78 79 79
70 69 67 66 66 66 66 67 67 68 67 67 67 67 67 68 68 69 73 76 77 79 82 85 87 86 86 85 83 81 81 82 83 83 83 82 82 82 82 82 81 81 81 80 79 79 78 77 77 77 77 76 76 75 75 75 76 76 77 78 79 80 81
73 72 71 70 69 69 69 69 69 69 69 68 67 67 67 68 68 69 72 74 74 76 80 83 86 88 89 88 86 84 84 84 84 84 85 85 85 85 85 85 85 84 84 84 83 83 82 81 81 80 80 80 79 79 78 78 78 78 79 79 80 81 82
75 74 73 72 72 72 71 72 72 72 71 70 69 68 67 68 69 70 72 72 72 76 80 82 85 87 88 88 87 87 88 87 87 86 86 87 87 88 88 88 88 87 86 86 86 86 86 85 85 84 84 84 83 83 82 81 81 81 81 81 82 83 84
76 75 75 74 74 73 73 74 74 74 74 73 72 70 69 69 70 72 72 72 72 76 80 82 83 84 84 84 86 89 90 90 90 90 90 90 90 90 90 90 90 90 89 89 89 89 89 88 88 88 87 87 87 87 87 86 85 85 85 85 85 85 86
78 77 76 75 75 75 75 75 76 75 75 75 74 73 72 72 73 73 74 74 73 75 78 80 82 81 80 80 82 86 88 90 91 92 92 93 93 93 92 92 92 92 91 91 91 91 91 91 90 90 90 90 91 90 90 90 90 90 90 89 89 88 89
80 80 79 77 77 76 76 77 77 77 77 76 76 75 75 75 75 75 75 75 75 76 78 80 80 79 78 79 81 83 85 86 88 91 93 95 96 96 95 95 95 94 93 93 93 93 93 93 92 92 92 93 93 93 93 93 94 94 94 93 92 91 92
82 82 81 80 79 78 78 78 78 78 78 78 77 77 77 77 77 77 77 77 77 78 79 80 79 78 78 79 80 81 82 83 85 87 90 93 95 96 97 98 98 97 96 96 96 96 95 95 94 93 93 94 95 95 95 96 97 97 96 95 95 95 95
83 82 82 81 80 79 79 79 78 79 79 79 79 79 79 79 79 79 78 79 79 79 80 80 79 78 79 79 79 79 80 81 82 83 86 88 91 93 96 98 99 99 99 99 99 99 99 98 96 95 95 95 95 96 97 98 98 98 97 97 97 97 98
82 81 81 80 80 79 79 79 79 79 79 80 80 80 81 80 80 80 80 80 80 79 79 80 80 79 79 79 78 78 78 79 79 80 81 83 85 88 91 94 97 98 99 100 100 101 101 100 99 98 98 98 98 98 99 99 99 98 98 98 98 99 99
80 79 79 79 78 78 79 79 79 79 80 80 80 81 81 81 81 82 82 81 79 79 79 81 81 80 78 77 77 76 77 76 76 76 78 79 82 84 87 90 92 94 96 98 99 100 101 101 101 101 101 101 101 102 102 102 101 100 100 100 100 101 101
76 75 75 75 75 75 75 76 77 77 79 80 80 81 81 81 82 82 82 80 80 80 80 81 80 79 77 76 75 74 74 73 72 73 74 76 78 80 83 85 87 89 91 93 95 97 97 98 99 100 101 101 102 103 104 104 103 103 103 103 103 104 104
72 71 71 71 71 71 71 72 73 74 76 77 79 80 80 80 80 80 80 80 80 80 80 80 80 79 77 75 73 72 71 71 70 70 71 73 75 77 78 80 82 84 85 87 89 91 92 93 95 96 98 99 100 102 103 104 104 103 104 104 104 105 106
69 69 69 68 67 67 68 69 70 71 72 74 76 77 78 78 78 79 79 79 79 79 79 79 79 78 77 75 72 70 69 68 68 68 69 70 72 74 75 76 78 79 80 81 83 85 86 86 87 89 91 92 94 96 98 99 100 101 101 102 103 104 105
66 66 65 65 64 64 65 66 66 67 68 70 72 73 74 75 76 77 78 78 78 78 78 77 77 77 76 74 71 69 67 66 66 66 66 68 70 71 72 73 74 75 75 76 77 78 79 79 79 79 80 82 84 87 89 91 93 94 96 97 98 100 102
Wind_Direction
251 252 251 249 248 246 246 245 244 243 242 243 244 244 242 238 236 237 238 237 235 232 227 224 221 218 216 214 210 209 211 210 210 215 220 220 222 224 226 229 232 232 232 232 233 235 237 237 237 237 237 238 240 242 242 241 240 242 243 244 244 245 246
252 251 251 251 250 249 247 246 246 246 245 244 245 243 240 236 234 236 238 238 236 234 229 225 222 220 220 220 216 210 209 211 212 215 220 222 222 222 224 229 233 233 232 232 233 234 237 238 238 238 239 239 241 242 243 243 243 243 244 245 245 245 244
255 252 250 250 251 251 251 250 249 248 247 246 246 244 241 237 234 234 237 238 238 235 231 227 224 222 221 223 222 215 210 211 213 215 218 221 224 224 224 228 233 235 233 233 234 234 235 238 239 239 239 240 241 243 244 246 246 245 245 246 246 246 244
259 256 253 251 250 251 251 252 252 251 250 248 247 246 243 240 236 235 237 239 240 238 234 229 226 224 222 222 224 222 216 213 213 215 216 219 224 227 228 230 234 239 237 234 234 236 235 236 238 239 239 241 243 245 246 247 248 248 247 247 246 245 244
260 259 256 254 253 252 251 251 252 252 252 250 248 247 245 243 240 238 238 240 241 240 238 233 229 226 224 223 224 225 223 220 217 216 217 218 221 225 230 233 234 237 240 238 235 236 237 236 236 238 239 241 243 245 246 247 249 249 248 249 247 245 244
259 259 258 256 255 253 252 251 251 251 252 251 250 248 246 245 243 241 240 241 242 242 241 238 234 230 227 225 224 225 226 225 223 221 220 219 219 221 226 232 234 234 237 240 237 234 236 238 237 236 238 241 242 244 246 247 249 250 250 250 250 248 247
257 257 257 256 255 254 253 253 252 251 251 251 251 249 248 246 245 244 243 243 243 243 243 242 239 236 232 229 226 226 226 227 227 226 225 224 223 221 222 226 231 233 233 236 239 236 234 236 238 238 238 240 242 244 246 247 248 249 251 252 253 251 250
254 254 254 254 255 254 254 254 253 252 252 252 251 251 250 248 246 245 244 244 244 244 244 243 242 240 238 235 231 228 228 228 228 229 229 228 228 227 226 225 226 229 230 232 236 238 235 234 236 239 240 241 241 241 243 246 249 250 251 252 253 253 252
251 252 252 252 252 253 253 254 253 253 252 252 252 251 251 250 248 247 246 245 245 245 244 244 243 242 241 240 237 233 231 230 230 229 230 231 232 232 232 231 228 227 228 229 231 235 238 236 234 235 238 240 241 240 239 240 244 250 253 254 254 254 254
251 251 251 251 251 251 252 252 252 252 252 252 252 251 251 250 250 249 248 246 246 245 245 244 244 243 242 242 242 239 236 234 233 232 231 231 233 234 235 235 234 232 229 229 229 231 234 237 237 237 237 237 238 238 238 239 239 242 248 253 255 256 256
252 251 251 251 251 251 251 251 251 251 251 251 251 251 251 250 250 249 249 248 247 246 245 245 244 243 242 242 243 243 241 239 237 236 235 234 234 234 235 236 237 237 236 234 233 232 233 234 236 238 239 239 238 237 237 239 240 240 241 245 250 253 255
252 252 252 251 250 250 250 250 250 251 251 251 252 252 252 251 251 250 250 249 249 248 247 246 245 244 244 243 243 242 242 242 241 239 238 238 237 236 236 237 238 239 240 239 238 237 237 237 236 237 238 240 240 240 238 238 239 240 241 242 243 246 250
254 253 253 252 251 250 249 249 249 250 250 251 251 252 252 252 252 251 251 250 250 250 249 248 246 245 244 244 244 243 242 242 243 242 240 240 240 239 238 238 238 239 240 241 241 241 241 241 241 240 238 238 240 241 242 241 240 239 240 242 242 243 245
255 254 254 253 252 251 250 250 249 249 249 249 250 250 251 251 252 252 251 251 250 250 250 250 249 247 245 244 244 244 244 243 243 243 243 242 241 241 241 240 240 240 240 241 241 242 242 243 244 244 243 241 240 240 242 243 244 243 241 241 242 243 244
255 254 254 254 254 253 251 251 250 250 249 249 249 249 249 249 249 250 250 250 250 250 250 250 250 249 248 246 245 245 245 245 244 244 244 244 243 242 242 242 242 242 241 241 242 242 243 243 244 246 246 245 243 242 242 242 244 245 245 244 243 243 243
255 254 254 254 254 254 253 252 251 251 250 250 250 249 249 249 249 249 249 249 249 249 249 249 249 249 249 248 247 247 245 245 245 244 244 244 244 243 243 243 243 243 243 243 243 243 243 243 244 245 246 246 246 245 244 244 244 245 245 246 246 245 245
254 254 254 254 255 255 254 253 252 252 251 251 250 250 250 250 250 250 249 249 249 249 248 248 247 247 247 248 248 248 247 246 245 245 244 244 244 244 244 243 244 244 244 244 244 244 244 244 244 245 245 246 246 246 246 247 247 247 247 246 246 246 247
253 253 254 255 255 255 254 254 253 253 252 252 251 251 251 250 250 250 250 249 249 249 248 248 247 246 246 246 246 247 247 247 247 246 245 245 244 243 244 244 244 244 244 244 244 244 245 245 245 245 246 245 246 246 247 247 248 249 250 250 249 249 249
252 251 252 255 256 255 254 254 254 253 253 252 252 252 252 252 252 252 251 250 250 249 248 248 247 246 245 245 245 246 246 246 247 247 247 246 246 245 244 244 244 244 244 245 245 245 245 245 246 246 246 247 247 247 248 248 248 249 250 251 252 253 253
254 252 250 252 255 255 254 253 253 253 253 252 252 252 252 253 253 253 252 252 251 250 249 248 247 247 246 246 245 245 246 246 246 247 247 247 247 247 247 246 245 245 245 245 245 245 246 246 246 246 246 247 247 248 249 250 250 251 251 251 252 253 254
257 255 252 251 252 254 254 254 253 253 252 252 252 252 252 252 252 252 252 252 252 252 251 250 248 247 247 246 246 246 246 246 246 246 246 247 247 248 248 248 248 247 246 246 245 245 246 246 246 246 246 246 247 248 249 250 251 251 252 253 253 253 254
259 257 256 254 254 254 254 254 254 254 253 252 252 252 252 252 252 253 253 253 253 253 253 252 251 250 248 247 246 246 246 246 246 246 246 246 247 247 247 248 248 248 248 248 247 246 246 246 246 247 247 247 247 247 248 249 250 251 252 253 253 254 254
262 260 258 257 257 256 256 255 255 255 254 254 253 252 252 253 254 254 254 254 254 254 253 253 252 251 250 249 247 246 246 247 247 246 246 246 246 246 247 247 247 248 248 248 248 248 248 248 248 248 248 248 248 248 248 248 249 250 251 252 253 254 254
264 263 262 261 260 259 259 258 257 256 255 254 254 253 253 254 254 254 254 254 254 254 254 254 253 252 251 250 249 248 247 247 247 247 247 247 246 246 246 246 247 247 248 248 249 249 249 249 249 249 249 249 248 248 248 248 249 250 250 251 252 253 254
265 265 265 264 263 262 261 261 260 259 258 256 255 254 254 254 254 254 255 254 255 255 255 254 254 253 252 251 250 249 249 248 248 248 248 247 247 247 247 247 246 247 247 248 248 248 249 249 250 250 250 250 250 249 249 249 249 249 250 250 251 252 253
264 264 264 264 264 264 263 263 262 261 261 259 258 256 255 254 254 254 255 255 256 256 256 255 254 253 253 252 252 251 250 250 249 249 249 248 248 248 248 248 247 247 247 247 248 248 248 248 249 249 250 250 251 251 250 250 250 250 250 250 251 252 253
262 263 263 263 263 263 263 263 263 262 262 261 260 259 257 257 256 256 255 255 255 256 257 257 256 255 254 254 253 252 252 251 251 250 250 250 249 249 248 248 248 248 248 247 248 248 248 248 249 249 249 250 251 251 251 251 251 251 251 251 251 252 253
261 261 261 262 262 262 262 263 262 262 262 261 261 261 260 258 258 257 257 256 255 256 257 257 257 257 256 255 254 254 253 252 252 252 251 251 251 250 249 249 249 249 249 249 248 248 248 249 249 249 249 250 250 251 251 251 251 252 252 252 252 253 253
262 262 262 262 262 262 262 262 262 262 262 262 261 261 261 260 259 259 258 258 257 257 257 257 258 258 257 257 256 255 254 253 252 252 252 252 252 252 251 251 250 250 250 250 250 249 249 249 249 249 250 250 251 251 251 252 252 252 252 252 253 253 254
263 263 263 263 263 262 262 262 262 262 263 263 262 262 261 261 261 261 260 260 259 258 258 258 258 258 258 257 256 256 255 254 253 253 253 253 253 253 253 252 252 251 251 251 251 251 251 250 250 250 250 250 251 251 252 252 252 252 253 253 253 253 254
262 263 263 263 263 263 262 262 262 262 262 263 263 263 262 262 261 261 261 261 260 260 260 260 260 259 259 258 257 257 257 256 255 254 254 253 254 254 254 254 253 253 252 252 252 252 252 252 252 251 251 251 252 252 252 252 253 253 253 254 254 254 254
262 262 262 262 262 262 262 262 262 262 261 261 262 262 262 263 263 262 262 261 261 261 262 262 261 261 260 259 259 258 258 257 256 256 256 255 254 254 254 254 254 254 254 253 253 253 253 253 253 253 253 253 253 253 254 254 254 254 255 255 255 255 255
261 261 261 262 262 261 261 261 261 261 261 261 261 261 261 262 262 262 262 262 262 262 262 262 262 261 261 260 260 259 259 258 258 258 258 257 256 255 254 254 254 254 255 255 254 254 254 254 254 254 254 254 254 254 255 255 255 255 256 256 256 257 257
262 262 262 261 261 261 261 260 260 260 260 260 260 260 259 260 260 261 262 263 263 263 262 262 263 263 262 262 261 261 261 260 260 260 259 259 258 257 256 255 254 254 254 255 255 255 255 254 254 254 254 254 255 255 255 255 256 256 256 257 257 258 258
261 261 261 260 260 259 259 259 259 258 258 258 258 259 259 259 259 260 261 261 261 262 262 263 263 264 264 263 263 262 263 263 263 262 261 260 260 259 258 258 257 256 255 255 255 255 255 255 254 254 254 254 255 255 255 256 256 256 257 257 258 258 258
260 260 259 259 259 259 258 258 258 257 256 256 257 258 258 259 259 259 260 260 260 261 261 262 263 264 265 265 265 265 265 265 264 264 262 261 260 260 259 259 258 258 257 257 257 257 256 256 255 255 255 254 254 254 255 255 256 257 257 258 258 259 259
260 260 260 259 259 258 258 258 258 257 257 256 256 257 257 258 258 259 260 260 261 261 261 262 262 263 265 267 268 268 267 267 265 264 263 262 261 260 260 260 259 259 259 258 258 258 258 258 258 257 256 256 255 254 254 255 255 255 256 256 257 258 259
Height
10599 10600 10602 10603 10604 10606 10607 10608 10609 10610 10611 10612 10613 10614 10614 10614 10615 10616 10617 10618 10620 10622 10624 10626 10627 10628 10629 10632 10635 10638 10641 10643 10645 10646 10648 10650 10651 10652 10655 10656 10657 10660 10663 10666 10668 10670 10672 10673 10675 10677 10680 10683 10684 10686 10688 10689 10691 10692 10694 10695 10698 10699 10701
10595 10597 10598 10599 10600 10602 10603 10604 10605 10606 10607 10608 10609 10609 10610 10610 10611 10611 10612 10613 10615 10617 10619 10621 10622 10624 10625 10626 10629 10632 10635 10638 10640 10642 10644 10645 10646 10648 10650 10651 10652 10655 10658 10661 10663 10666 10668 10669 10671 10673 10676 10677 10679 10681 10683 10684 10686 10688 10690 10691 10693 10695 10696
10591 10593 10594 10595 10596 10597 10598 10600 10601 10602 10603 10604 10604 10605 10605 10606 10606 10607 10608 10609 10610 10611 10613 10615 10617 10619 10620 10621 10623 10626 10629 10632 10635 10637 10639 10641 10642 10643 10645 10647 10648 10650 10653 10656 10658 10661 10663 10665 10666 10669 10670 10672 10673 10675 10677 10679 10681 10684 10685 10687 10688 10690 10692
10587 10588 10590 10591 10592 10593 10594 10595 10596 10597 10598 10599 10600 10600 10601 10601 10602 10602 10603 10604 10605 10606 10608 10610 10611 10613 10615 10616 10617 10620 10623 10626 10629 10631 10634 10636 10638 10639 10641 10643 10644 10646 10648 10651 10653 10655 10658 10660 10661 10663 10665 10667 10668 10670 10672 10674 10676 10678 10680 10682 10684 10686 10687
10583 10584 10585 10587 10588 10589 10590 10591 10592 10593 10594 10594 10595 10596 10596 10597 10598 10598 10599 10600 10600 10601 10603 10604 10606 10608 10609 10611 10612 10614 10617 10619 10622 10625 10628 10631 10633 10634 10636 10638 10640 10642 10643 10646 10649 10651 10652 10655 10656 10658 10660 10662 10663 10664 10666 10668 10670 10673 10675 10677 10679 10681 10682
10579 10580 10581 10582 10583 10585 10586 10587 10588 10589 10589 10590 10591 10591 10592 10592 10593 10594 10595 10596 10596 10597 10598 10600 10601 10603 10605 10606 10608 10609 10611 10613 10616 10618 10621 10624 10627 10629 10630 10632 10635 10638 10639 10640 10643 10646 10647 10649 10651 10653 10655 10656 10657 10659 10661 10663 10665 10667 10670 10672 10674 10675 10677
10574 10575 10576 10577 10578 10579 10581 10582 10583 10584 10585 10585 10586 10587 10587 10588 10588 10589 10590 10591 10592 10593 10594 10596 10597 10599 10600 10602 10603 10605 10606 10608 10610 10612 10614 10617 10620 10622 10625 10627 10629 10632 10635 10636 10637 10640 10643 10644 10646 10648 10650 10651 10652 10653 10655 10657 10659 10661 10664 10666 10667 10669 10671
10568 10569 10570 10571 10572 10574 10575 10576 10578 10579 10580 10581 10581 10582 10582 10583 10583 10584 10585 10586 10588 10589 10590 10591 10593 10594 10596 10598 10600 10601 10602 10604 10605 10607 10608 10610 10613 10615 10618 10620 10623 10626 10629 10631 10632 10634 10637 10639 10640 10642 10644 10645 10646 10648 10649 10650 10652 10654 10657 10659 10661 10663 10665
10562 10563 10564 10565 10566 10568 10569 10570 10572 10573 10574 10575 10576 10576 10577 10577 10578 10579 10580 10581 10583 10584 10585 10586 10588 10590 10592 10594 10596 10597 10599 10600 10601 10602 10604 10606 10607 10609 10611 10613 10616 10619 10622 10625 10626 10628 10630 10632 10634 10636 10637 10638 10640 10641 10643 10644 10646 10648 10649 10651 10654 10656 10658
10556 10557 10558 10559 10560 10561 10562 10563 10564 10566 10567 10568 10569 10570 10571 10572 10573 10574 10575 10576 10577 10579 10580 10581 10583 10585 10586 10588 10591 10593 10594 10596 10597 10599 10600 10602 10603 10604 10605 10607 10609 10612 10615 10617 10619 10621 10623 10624 10626 10628 10630 10631 10632 10634 10635 10637 10640 10643 10643 10645 10646 10648 10650
10549 10551 10552 10552 10553 10554 10555 10556 10557 10559 10560 10562 10563 10564 10565 10567 10568 10568 10570 10571 10572 10573 10575 10576 10577 10579 10581 10583 10585 10587 10589 10591 10593 10594 10596 10597 10599 10600 10601 10602 10604 10606 10608 10610 10612 10614 10616 10617 10619 10620 10622 10623 10625 10626 10628 10630 10633 10637 10638 10640 10641 10642 10643
10542 10543 10544 10545 10546 10547 10548 10550 10551 10553 10555 10556 10558 10559 10560 10561 10562 10564 10565 10566 10567 10568 10569 10571 10572 10573 10575 10577 10579 10581 10583 10585 10586 10588 10590 10592 10593 10595 10596 10597 10599 10600 10602 10604 10606 10607 10609 10610 10612 10614 10615 10616 10617 10619 10620 10622 10625 10629 10632 10633 10636 10637 10637
10535 10536 10536 10537 10538 10540 10542 10544 10545 10547 10549 10550 10552 10553 10554 10555 10556 10558 10560 10561 10562 10562 10563 10564 10565 10567 10569 10571 10573 10575 10576 10578 10579 10581 10583 10585 10587 10589 10590 10592 10593 10595 10597 10598 10600 10601 10602 10604 10605 10607 10608 10610 10610 10611 10613 10614 10617 10622 10624 10626 10628 10631 10632
10527 10528 10528 10528 10530 10533 10535 10537 10538 10540 10541 10543 10544 10546 10547 10548 10549 10551 10553 10554 10555 10556 10556 10557 10558 10560 10562 10564 10566 10568 10569 10571 10572 10574 10576 10578 10580 10582 10583 10585 10586 10588 10590 10592 10593 10595 10596 10597 10599 10600 10601 10603 10604 10605 10605 10606 10609 10613 10617 10619 10620 10623 10624
10518 10519 10519 10520 10521 10524 10526 10528 10531 10532 10534 10535 10537 10538 10539 10540 10541 10543 10545 10546 10547 10548 10549 10550 10551 10553 10555 10557 10559 10561 10562 10564 10565 10567 10569 10570 10572 10574 10576 10577 10579 10580 10582 10584 10586 10588 10589 10591 10592 10593 10594 10596 10597 10598 10598 10599 10601 10604 10608 10611 10613 10615 10616
10508 10510 10510 10511 10513 10515 10517 10520 10522 10524 10526 10527 10529 10530 10531 10532 10534 10535 10537 10538 10539 10540 10541 10542 10543 10545 10547 10549 10551 10552 10554 10556 10558 10559 10561 10562 10564 10565 10567 10569 10571 10572 10574 10576 10578 10579 10581 10583 10584 10586 10587 10589 10590 10591 10591 10591 10593 10595 10598 10602 10605 10607 10608
10499 10500 10501 10503 10505 10506 10508 10510 10512 10514 10517 10518 10520 10521 10523 10524 10526 10527 10528 10530 10531 10531 10532 10532 10534 10537 10539 10541 10542 10543 10545 10547 10549 10551 10552 10554 10555 10556 10558 10560 10562 10563 10565 10567 10569 10571 10573 10574 10576 10578 10580 10581 10583 10583 10584 10584 10585 10587 10589 10592 10595 10598 10600
10490 10492 10494 10495 10495 10495 10498 10500 10502 10505 10507 10509 10510 10513 10514 10516 10517 10518 10519 10521 10522 10522 10522 10522 10524 10527 10530 10532 10533 10534 10536 10537 10539 10541 10543 10544 10546 10548 10549 10551 10553 10554 10556 10558 10560 10562 10564 10565 10567 10569 10571 10573 10575 10576 10576 10577 10578 10579 10581 10583 10585 10589 10591
10479 10483 10487 10487 10483 10484 10488 10491 10492 10495 10497 10500 10502 10504 10505 10507 10508 10509 10509 10511 10511 10511 10511 10512 10514 10517 10521 10523 10524 10525 10527 10528 10530 10531 10533 10535 10537 10539 10541 10543 10545 10546 10548 10549 10551 10553 10555 10557 10559 10561 10563 10565 10567 10568 10569 10570 10571 10572 10573 10575 10577 10579 10581
10469 10473 10478 10479 10474 10474 10478 10481 10482 10484 10487 10490 10492 10493 10496 10497 10497 10497 10498 10499 10499 10499 10500 10502 10505 10508 10511 10513 10515 10517 10518 10520 10521 10523 10525 10527 10529 10531 10533 10534 10536 10538 10540 10541 10543 10545 10546 10548 10550 10552 10554 10557 10559 10560 10561 10562 10563 10564 10565 10567 10569 10571 10572
10459 10462 10466 10468 10467 10466 10468 10471 10473 10474 10476 10479 10481 10483 10486 10485 10484 10485 10487 10487 10487 10488 10489 10492 10496 10499 10501 10504 10506 10508 10509 10510 10512 10515 10517 10519 10521 10522 10524 10525 10527 10529 10531 10533 10535 10536 10538 10540 10542 10544 10546 10549 10551 10552 10554 10554 10555 10556 10557 10558 10560 10562 10563
10449 10452 10455 10457 10458 10458 10460 10462 10463 10464 10466 10468 10471 10474 10474 10472 10474 10477 10477 10477 10478 10479 10480 10483 10485 10488 10491 10493 10496 10498 10500 10501 10503 10505 10507 10509 10511 10513 10514 10516 10518 10519 10521 10523 10526 10528 10530 10532 10534 10536 10538 10541 10543 10545 10546 10547 10547 10547 10548 10550 10550 10551 10554
10439 10442 10444 10446 10448 10449 10451 10452 10453 10454 10456 10458 10461 10464 10464 10463 10467 10469 10467 10467 10469 10470 10471 10472 10473 10475 10478 10481 10485 10488 10490 10491 10492 10495 10497 10499 10501 10502 10504 10506 10508 10509 10511 10514 10516 10519 10521 10523 10526 10527 10529 10532 10534 10536 10537 10538 10539 10540 10540 10541 10541 10541 10543
10428 10430 10433 10435 10437 10439 10441 10441 10442 10444 10446 10449 10451 10453 10454 10455 10458 10458 10455 10456 10459 10460 10460 10459 10460 10462 10465 10468 10473 10477 10479 10481 10482 10484 10487 10489 10490 10492 10494 10495 10497 10498 10500 10503 10506 10508 10511 10513 10516 10518 10519 10522 10524 10526 10528 10529 10530 10531 10532 10532 10532 10532 10533
10417 10420 10422 10424 10426 10428 10430 10430 10431 10432 10435 10438 10440 10443 10444 10445 10446 10446 10444 10446 10449 10449 10447 10446 10446 10449 10452 10457 10462 10466 10467 10469 10471 10473 10475 10478 10479 10481 10483 10484 10486 10488 10491 10493 10495 10497 10500 10502 10505 10507 10509 10511 10513 10515 10517 10519 10520 10521 10522 10523 10523 10522 10522
10408 10409 10411 10413 10415 10417 10418 10419 10420 10421 10423 10425 10428 10432 10434 10434 10435 10435 10435 10438 10440 10436 10433 10433 10434 10436 10441 10448 10452 10454 10455 10457 10459 10461 10464 10466 10467 10469 10471 10473 10475 10478 10481 10483 10484 10486 10488 10491 10493 10496 10498 10499 10501 10504 10506 10508 10510 10510 10511 10513 10513 10513 10511
10399 10400 10401 10403 10405 10406 10407 10407 10408 10410 10412 10413 10416 10419 10422 10423 10423 10423 10424 10427 10428 10425 10421 10421 10423 10426 10433 10438 10441 10441 10443 10446 10447 10450 10452 10453 10454 10457 10459 10461 10463 10466 10469 10471 10473 10474 10477 10480 10482 10485 10486 10488 10490 10491 10494 10496 10498 10499 10500 10501 10503 10503 10501
10388 10390 10392 10393 10395 10396 10397 10397 10397 10399 10400 10402 10404 10406 10409 10410 10411 10412 10412 10414 10416 10416 10413 10411 10412 10417 10423 10427 10428 10428 10430 10433 10435 10437 10439 10440 10441 10444 10447 10449 10451 10454 10457 10459 10461 10463 10465 10468 10472 10474 10475 10476 10478 10480 10482 10483 10485 10486 10487 10489 10491 10493 10492
10377 10379 10381 10384 10385 10386 10387 10387 10386 10388 10389 10391 10393 10394 10396 10397 10398 10399 10401 10402 10404 10404 10402 10401 10403 10408 10413 10414 10415 10415 10417 10420 10422 10424 10425 10426 10428 10431 10434 10436 10438 10441 10445 10446 10448 10451 10453 10456 10460 10462 10463 10464 10466 10468 10469 10470 10471 10472 10474 10476 10480 10482 10482
10366 10367 10369 10372 10374 10375 10376 10376 10377 10377 10378 10379 10381 10382 10384 10385 10385 10386 10388 10389 10391 10391 10391 10391 10395 10399 10401 10401 10402 10404 10406 10408 10410 10411 10412 10414 10416 10418 10420 10422 10424 10428 10431 10433 10435 10437 10440 10443 10446 10449 10451 10452 10453 10455 10457 10457 10457 10458 10461 10465 10468 10469 10469
10355 10356 10358 10360 10362 10364 10365 10366 10367 10367 10368 10369 10369 10370 10371 10372 10373 10374 10376 10376 10377 10378 10379 10382 10385 10388 10389 10390 10391 10393 10395 10396 10398 10399 10400 10402 10404 10405 10407 10408 10410 10413 10417 10419 10421 10423 10425 10429 10433 10436 10438 10439 10441 10442 10442 10442 10443 10446 10449 10453 10454 10455 10455
10342 10345 10347 10349 10351 10353 10353 10354 10355 10357 10357 10358 10358 10358 10359 10360 10361 10362 10363 10363 10365 10368 10369 10370 10372 10374 10376 10378 10380 10382 10382 10383 10385 10387 10389 10390 10392 10392 10393 10394 10396 10398 10401 10404 10406 10408 10410 10414 10418 10421 10423 10425 10427 10427 10427 10427 10431 10434 10436 10438 10439 10440 10441
10331 10333 10335 10337 10339 10341 10342 10342 10344 10345 10345 10346 10347 10347 10348 10349 10349 10349 10349 10351 10355 10357 10357 10357 10358 10360 10364 10366 10368 10369 10370 10372 10374 10376 10377 10378 10378 10379 10379 10380 10382 10384 10387 10389 10390 10392 10395 10399 10402 10405 10408 10410 10411 10411 10411 10414 10417 10420 10422 10424 10424 10424 10425
10319 10322 10324 10326 10327 10329 10330 10331 10332 10333 10333 10334 10334 10335 10336 10338 10337 10337 10339 10341 10343 10344 10344 10345 10346 10348 10351 10353 10356 10357 10359 10361 10363 10364 10365 10365 10365 10365 10365 10366 10368 10370 10373 10375 10375 10377 10380 10383 10386 10389 10392 10394 10395 10396 10397 10400 10402 10405 10407 10408 10409 10409 10409
10308 10311 10312 10313 10316 10318 10318 10319 10320 10321 10321 10321 10321 10322 10324 10326 10326 10327 10329 10330 10331 10331 10332 10333 10335 10336 10338 10340 10343 10346 10347 10349 10351 10352 10353 10352 10352 10352 10353 10353 10355 10357 10359 10360 10361 10363 10365 10367 10370 10373 10376 10378 10380 10381 10383 10385 10388 10390 10391 10392 10393 10394 10394
10296 10299 10300 10302 10305 10307 10308 10308 10309 10309 10310 10310 10310 10311 10313 10314 10316 10317 10317 10318 10319 10321 10321 10323 10324 10325 10326 10329 10332 10334 10337 10338 10339 10340 10340 10340 10340 10340 10340 10341 10342 10343 10345 10346 10348 10350 10351 10353 10356 10359 10361 10363 10366 10367 10369 10371 10373 10375 10376 10376 10377 10378 10378
10286 10287 10289 10292 10295 10297 10297 10298 10298 10299 10300 10300 10300 10301 10303 10305 10305 10305 10306 10307 10309 10310 10311 10312 10314 10315 10317 10319 10321 10323 10325 10327 10327 10328 10329 10329 10328 10328 10329 10329 10330 10331 10332 10334 10335 10337 10339 10341 10343 10346 10348 10350 10352 10354 10356 10358 10359 10360 10362 10362 10362 10363 10362